This demonstration page uses our WeatherBlox Daily Observations layout. Learn more.

39.92423, -83.80882

Hourly Observations for April 5, 2019

Temp ( °F °C ) Dew Point ( °F °C ) Humidity (%) Winds ( mph kmh ) Pressure ( in mb ) Visibility ( mi km ) Precip ( " mm )
12:56 am 00:56 Cloudy with Light Rain 48 8.9 42 5.6 80 80 ESE 7 11 30.19 1023 10 16.0934 0 0.0254
1:56 am 01:56 Cloudy with Light Rain 47 8.3 41 5 80 80 E 10 17 30.16 1022 10 16.0934 0 0.0254
2:56 am 02:56 Cloudy with Light Rain 46 7.8 42 5.6 86 86 E 5 7 30.15 1021 10 16.0934 0 0.0254
3:56 am 03:56 Cloudy with Light Rain 44 6.7 43 6.1 96 96 NE 5 7 30.14 1021 10 16.0934 0.02 0.508
4:56 am 04:56 Cloudy with Light Rain 43 6.1 42 5.6 97 97 ENE 5 7 30.12 1020 10 16.0934 0 0.0254
5:56 am 05:56 Cloudy with Light Rain 43 6.1 42 5.6 97 97 ESE 3 6 30.12 1020 10 16.0934 0 0.0254
6:56 am 06:56 Cloudy with Light Rain 43 6.1 42 5.6 97 97 ESE 6 9 30.11 1020 10 16.0934 0.01 0.254
7:56 am 07:56 Cloudy 44 6.7 43 6.1 96 96 ESE 7 11 30.12 1020 10 16.0934 0 0.0254
8:56 am 08:56 Cloudy 46 7.8 44 6.7 93 93 ESE 6 9 30.11 1020 10 16.0934 0 0
9:56 am 09:56 Cloudy 49 9.4 45 7.2 86 86 SE 8 13 30.09 1019 10 16.0934 0 0
10:56 am 10:56 Cloudy 51 10.6 47 8.3 86 86 SE 8 13 30.1 1019 10 16.0934 0 0
11:24 am 11:24 Cloudy 50 10 46 8 88 88 SE 7 11 30.1 1019 10 16.0934 0 0
11:56 am 11:56 Cloudy 50 10 47 8.3 89 89 SE 8 13 30.11 1020 10 16.0934 0 0
12:56 pm 12:56 Cloudy 53 11.7 48 8.9 83 83 ESE 5 7 30.1 1019 10 16.0934 0 0
1:56 pm 13:56 Cloudy 56 13.3 49 9.4 77 77 S 5 7 30.09 1019 10 16.0934 0 0
2:56 pm 14:56 Cloudy 56 13.3 49 9.4 77 77 S 5 7 30.09 1019 10 16.0934 0 0
3:56 pm 15:56 Cloudy 58 14.4 49 9.4 72 72 NW 5 7 30.08 1019 10 16.0934 0 0
4:42 pm 16:42 Cloudy 57 14 48 9 72 72 Calm 30.06 1018 10 16.0934 0 0
4:56 pm 16:56 Cloudy 58 14.4 49 9.4 72 72 Calm 30.07 1018 10 16.0934 0 0
5:56 pm 17:56 Cloudy 58 14.4 49 9.4 72 72 Calm 30.08 1019 10 16.0934 0 0
6:56 pm 18:56 Cloudy 58 14.4 48 8.9 70 70 Calm 30.09 1019 10 16.0934 0 0
7:56 pm 19:56 Cloudy 56 13.3 49 9.4 77 77 Calm 30.09 1019 10 16.0934 0 0
8:56 pm 20:56 Cloudy 55 12.8 50 10 83 83 Calm 30.1 1019 10 16.0934 0 0
9:56 pm 21:56 Cloudy 55 12.8 49 9.4 80 80 SSE 3 6 30.12 1020 10 16.0934 0 0
10:56 pm 22:56 Cloudy 54 12.2 50 10 87 87 SSE 5 7 30.13 1020 10 16.0934 0 0
11:56 pm 23:56 Cloudy 54 12.2 49 9.4 83 83 Calm 30.14 1021 10 16.0934 0 0

Powered by AerisWeather